Regional Weather Roundup
Issued by NWS Albany, NY

Home | Current Version | Previous Version | Text Only | Print | Product List | Glossary On
Versions: 1 2 3 4 5 6 7 8 9 10 11 12 13 14 15 16 17 18 19 20 21 22 23 24 25 26 27 28 29 30 31 32 33 34 35 36 37 38 39 40 41 42 43 44 45 46 47 48 49 50
000
ASUS41 KALY 222210
RWRALY

NEW YORK STATE HOURLY WEATHER ROUNDUP
NATIONAL WEATHER SERVICE ALBANY NY
600 PM EDT SUN OCT 22 2017

NOTE: "FAIR" INDICATES FEW OR NO CLOUDS BELOW 12,000 FEET WITH NO
SIGNIFICANT WEATHER AND/OR NO OBSTRUCTIONS TO VISIBILITY.

NYZ032-033-038>043-046>054-057>066-NYZ062>081-082-084-222300-
EAST


CITY           SKY/WX    TMP DP  RH WIND       PRES   REMARKS
ALBANY         MOCLDY    71  42  35 S6        30.30S
GLENS FALLS    CLOUDY    64  48  56 CALM      30.29F
POUGHKEEPSIE   PTCLDY    68  45  43 SE5       30.32F
NEWBURGH       PTCLDY    70  46  43 VRB5      30.35S
MONTGOMERY     MOCLDY    68  46  45 S7        30.32S
WHITE PLAINS   PTCLDY    65  47  52 S5        30.36S
ISLIP          MOCLDY    65  56  72 S7        30.37F
NEW YORK CITY  CLOUDY    68  50  52 S13       30.35F
CENTRAL PARK   CLEAR     67  53  61 MISG      30.38S
$$

NYZ005>009-017-018-044>046-055-056-222300-
CENTRAL


CITY           SKY/WX    TMP DP  RH WIND       PRES   REMARKS
FULTON         PTCLDY    71  52  50 SE5       30.22S
SYRACUSE       MOCLDY    68  51  54 E5        30.23S
ROME           MOCLDY    67  47  48 E5        30.26S
ELMIRA         CLOUDY    69  52  54 S10       30.24S
BINGHAMTON     PTCLDY    66  42  41 S7        30.29S
MONTICELLO     PTCLDY    66  45  46 S5        30.36
$$

NYZ026>034-041>043-087-222300-
NORTH


CITY           SKY/WX    TMP DP  RH WIND       PRES   REMARKS
WATERTOWN      MOCLDY    63  55  75 E3        30.21F
FORT DRUM      NOT AVBL
OGDENSBURG     FAIR      66  56  70 CALM      30.21S
MASSENA        CLOUDY    64  51  62 E3        30.24S
SARANAC LAKE   CLEAR     64  42  44 CALM      30.27S
PLATTSBURGH    PTCLDY    64  48  56 CALM      30.24S
$$

NYZ001>004-010>016-019>021-085-222300-
WEST


CITY           SKY/WX    TMP DP  RH WIND       PRES   REMARKS
NIAGARA FALLS  CLEAR     74  49  41 S3        30.14F
BUFFALO        MOCLDY    75  50  41 S5        30.16S
DUNKIRK        PTCLDY    71  52  50 S7        30.15F
JAMESTOWN      MOCLDY    69  51  52 S6        30.20F
WELLSVILLE     CLOUDY    69  47  45 S9G17     30.26F
ROCHESTER      CLOUDY    70  56  61 SE6       30.18F
PENN YAN       PTCLDY    67  50  54 SE6       30.23S
$$

             KEY
       WCI = WIND CHILL INDEX
       VSB = VISIBILITY
       HX  = HEAT INDEX
$$



USA.gov is the U.S. government's official web portal to all federal, state and local government web resources and services.